Flag for Denmark Weather past 2 weeks in Copenhagen, Denmark

Now
55 °F

Light rain. Mostly cloudy.


Feels Like: 52 °F
Forecast: 54 / 60 °F
Wind: 13 mph from Southeast

Location: Koebenhavn-Kastrup Airport

Current Time: Oct 1, 2014 at 2:53:04 AM

Latest Report: Oct 1, 2014 at 2:20 AM


Visibility: N/A

Pressure: 30.30 "Hg

Humidity: 94%

Dew point: 54 °F

Location of CopenhagenLocation

Historic Weather in Copenhagen — Graph

°F

Copenhagen temperature yesterday

Maximum temperature yesterday: 59 °F (at 3:50 PM)
Minimum temperature yesterday: 55 °F (at 2:50 AM)
Average temperature yesterday: 57 °F

Past Weeks' High & Low Weather Summary

 TemperatureHumidityPressure
High70 °F (Sep 19, 3:50 PM)100% (Sep 17, 7:50 AM)30.30 "Hg (Sep 17, 7:50 AM)
Low41 °F (Sep 23, 6:20 AM)46% (Sep 23, 8:50 AM)29.65 "Hg (Sep 24, 10:20 PM)
Average58 °F82%30.03 "Hg
* Reported Sep 16 1:20 AM — Oct 1 1:50 AM, Copenhagen, Weather by CustomWeather, © 2014

Note: Actual official high and low records may vary slightly from our data, if they occured in-between our weather recording intervals... More about our weather records

Advertising

Copenhagen weather history for previous 24 hours

 ConditionsComfort  
Time TempWeatherWind HumidityBarometerVisibility
1:50 AM
Oct 1
55 °FLight rain. Partly cloudy.15 mph94%30.30 "HgN/A
1:20 AM55 °FLight rain. Partly cloudy.14 mph94%30.30 "HgN/A
12:50 AM55 °FLight rain. Partly cloudy.15 mph94%30.30 "HgN/A
12:20 AM55 °FLight rain. Partly cloudy.15 mph94%30.30 "HgN/A
11:50 PM
Sep 30
57 °FLight rain. Partly cloudy.15 mph88%30.30 "HgN/A
11:20 PM57 °FPartly cloudy.13 mph88%30.30 "HgN/A
10:50 PM57 °FPartly cloudy.12 mph88%30.30 "HgN/A
10:20 PM57 °FPartly cloudy.9 mph88%30.30 "HgN/A
9:50 PM57 °FPassing clouds.10 mph88%30.30 "HgN/A
9:20 PM57 °FPartly cloudy.8 mph88%30.30 "HgN/A
8:50 PM57 °FLight rain. Passing clouds.9 mph88%30.30 "HgN/A
8:20 PM57 °FLight rain. Clear.9 mph88%30.30 "HgN/A
7:50 PM57 °FLight rain. Clear.9 mph82%30.30 "HgN/A
7:20 PM57 °FLight rain. Clear.9 mph82%30.27 "HgN/A
6:50 PM57 °FPartly sunny.9 mph82%30.27 "HgN/A
6:20 PM57 °FLight rain. Clear.8 mph88%30.27 "HgN/A
5:50 PM57 °FLight rain. Partly sunny.6 mph82%30.27 "HgN/A
5:20 PM57 °FLight rain. Partly sunny.6 mph82%30.27 "HgN/A
4:50 PM57 °FLight rain. Partly sunny.7 mph82%30.27 "HgN/A
4:20 PM57 °FLight rain. Broken clouds.7 mph88%30.27 "HgN/A
3:50 PM59 °FLight rain. Partly sunny.6 mph82%30.27 "HgN/A
3:20 PM57 °FLight rain. Partly sunny.7 mph88%30.27 "HgN/A
2:50 PM57 °FLight rain. Broken clouds.6 mph88%30.27 "HgN/A
2:20 PM57 °FPartly sunny.7 mph88%30.27 "HgN/A
1:50 PM57 °FLight rain. Broken clouds.7 mph88%30.27 "HgN/A
1:20 PM57 °FLight rain. Broken clouds.7 mph88%30.27 "HgN/A
12:50 PM57 °FLight rain. Broken clouds.7 mph82%30.27 "HgN/A
12:20 PM57 °FLight rain. Broken clouds.7 mph82%30.27 "HgN/A
11:50 AM57 °FLight rain. Partly sunny.5 mph82%30.27 "HgN/A
11:20 AM57 °FLight rain. Broken clouds.5 mph82%30.27 "HgN/A
10:50 AM55 °FLight rain. Broken clouds.6 mph88%30.24 "HgN/A
10:20 AM55 °FLight rain. Partly sunny.5 mph88%30.24 "HgN/A
9:50 AM55 °FLight rain. Partly sunny.6 mph88%30.24 "HgN/A
9:20 AM55 °FLight rain. Partly sunny.3 mph88%30.24 "HgN/A
8:50 AM55 °FLight rain. Clear.6 mph88%30.21 "HgN/A
8:20 AM55 °FSunny.6 mph88%30.21 "Hg10 mi
7:50 AM55 °FClear.3 mph88%30.21 "Hg10 mi
7:20 AM55 °FClear.5 mph88%30.21 "Hg10 mi
6:50 AM55 °FClear.5 mph88%30.21 "Hg10 mi
6:20 AM55 °FLight rain. Clear.5 mph94%30.21 "HgN/A
5:50 AM55 °FLight rain. Clear.6 mph94%30.21 "HgN/A
5:20 AM55 °FClear.6 mph100%30.21 "Hg10 mi
4:50 AM55 °FPartly cloudy.6 mph100%30.21 "HgN/A
4:20 AM57 °FClear.5 mph94%30.21 "Hg10 mi
3:50 AM55 °FClear.3 mph94%30.21 "Hg10 mi
3:20 AM55 °FClear.2 mph100%30.21 "Hg10 mi
2:50 AM55 °FClear.2 mph100%30.21 "Hg10 mi
2:20 AM57 °FClear.5 mph94%30.21 "Hg10 mi
Weather by CustomWeather, © 2014

See weather overviewHow to use our weather pages